KEWR

Newark Liberty International Airport

Airport
ICAO code
KEWR
IATA Code
EWR
Summary
ICAO Region
NAM
ICAO Territory
Location

Newark, New Jersey,

Serving
Newark
Elevation
18 ft
Coordinates
40° 41' 24" N , 74° 10' 42" W
KCC
Airport LOS
Parallel Runway Operation
Airport RE
Engineered Materials Arresting System
Metar
KEWR 171151Z 19007KT 10SM FEW055 FEW250 22/16 A3022 RMK AO2 SLP232 T02170161 10222 20194 53007

Description

Newark Liberty International Airport (IATA: EWR), first named Newark Airport and later Newark International Airport, is an international airport within the city limits of both Newark and Elizabeth, New Jersey, United States (although it is entirely owned by the city of Newark). It is about 24 km southwest of Midtown Manhattan (New York City).

Climatology

Humid “subtropical” climate (Köppen climate classification Cfa) - characterized by hot, humid summers and cool winters. Significant amounts of precipitation occur in all seasons in most areas. Winter rainfall (and sometimes snowfall) is associated with large storms that the westerlies steer from west to east. Most summer rainfall occurs during thunderstorms.

Airport map

Aerial View

SKYbrary Partners:

Safety knowledge contributed by: